Location: Chmeln�
(49.6483°N, 14.9871°E)
Time: 02:58:48
(UTC+00:00)

Cosmos 1269 Rocket - Pass Details

Date: 18 September 2020
Orbit: 772 x 780 km, 74.1° (Epoch: 24 October)

Event Time Altitude Azimuth Distance (km) Brightness Sun altitude
Rises 19:33:10 0° 336° (NNW) 3,274 8.2 -23.3°
Reaches altitude 10° 19:35:35 10° 338° (NNW) 2,343 7.2 -23.6°
Maximum altitude 19:40:55 79° 65° (ENE) 801 3.9 -24.3°
Enters shadow 19:41:30 69° 124° (SE) 837 3.9 -24.4°
